Location: Oberwangen
(47.4286°N, 8.9679°E)
Time: 13:19:19
(UTC+00:00)

IGS 5A - Pass Details

Date: 20 June 2021
Orbit: 583 x 587 km, 97.6° (Epoch: 17 July)

Event Time Altitude Azimuth Distance (km) Brightness Sun altitude
Exits shadow 20:02:27 - 170° (S) 2,661 6.3 -5.7°
Reaches altitude 10° 20:04:16 10° 172° (S) 1,908 5.6 -5.9°
Maximum altitude 20:08:24 74° 258° (WSW) 616 3.7 -6.4°
Drops below altitude 10° 20:12:35 10° 344° (NNW) 1,925 7.2 -6.9°
Sets 20:14:46 0° 346° (NNW) 2,831 8.2 -7.1°
